Starlink 11123

operational
NORAD ID: 59948 Int'l Des: 2024-107 Owner: SPXS Country: US Constellation: starlink
LEOCIRCULAR

About Starlink 11123

Description loading...

Live Position

Loading 3D Globe...

Upcoming Passes

Altitude History

Altitude vs Time

uPlot chart will show altitude changes over time

Two-Line Element Set

1 59948U 24107D 25352.25902571 -.00000846 00000-0 -21201-5 0 9998
2 59948 53.1599 292.8846 0001214 84.3101 275.8056 15.69720539 89415
Epoch: Dec 18, 2025 • Age: 26 hours

Current Status

Altitude 378.4 km
Velocity 7.68 km/s
Sub-Earth Point -51.78°S, 25.85°W
Launch Date Jun 5, 2024
Age 1.5 years
Type internet

Technical Details

Classification Payload
Mass 960.00 kg
Dry Mass 910.00 kg
Total Mass 960.00 kg
Length 0.30 m
Diameter 4.10 m
Span 29.00 m
Shape Box + pan
Manufacturer SPXS
Bus Type Starlink V2MD
Phase Status In Orbit
Owner/State SPXS/US

Large Constellations

Loading constellations...